Regional Weather Roundup
Issued by NWS

Home | Current Version | Previous Version | Text Only | Print | Product List | Glossary Off
Versions: 1 2 3 4 5 6 7 8 9 10 11 12 13 14 15 16 17 18 19 20 21 22 23 24 25 26 27 28 29 30 31 32 33 34 35 36 37 38 39 40 41 42 43 44 45 46 47 48 49 50

398
ASUS43 KMPX 261710
RWRMN
WEATHER ROUNDUP FOR MINNESOTA
NATIONAL WEATHER SERVICE TWIN CITIES/CHANHASSEN MN
1200 PM CDT WED APR 26 2017


NOTE: "FAIR" INDICATES FEW OR NO CLOUDS BELOW 12,000 FEET WITH NO
SIGNIFICANT WEATHER AND/OR OBSTRUCTIONS TO VISIBILITY. N/A MEANS
CURRENT SKY AND/OR WEATHER CONDITIONS ARE NOT AVAILABLE.

MNZ060>063-068>070-261800-
   Twin Cities Metro

CITY           SKY/WX    TMP DP  RH WIND       PRES   REMARKS
TWIN CITIES    CLOUDY    38  33  82 N12       29.53R
ST PAUL        CLOUDY    38  35  89 N15G21    29.53R
CRYSTAL        CLOUDY    38  32  79 N8        29.53R
BLAINE         CLOUDY    37  37 100 N14       29.52R
LAKEVILLE      CLOUDY    36  36 100 NW12      29.51F
EDEN PRAIRIE   CLOUDY    38  33  82 NW12      29.52R
SOUTH ST PAUL  CLOUDY    37  37  99 NW8       29.52R
LAKE ELMO      CLOUDY    37  36  93 N9        29.51F
$$
MNZ001>005-007-008-013>017-022>024-027-028-261800-
   Northwest Minnesota

CITY           SKY/WX    TMP DP  RH WIND       PRES   REMARKS
BEMIDJI        FLURRIES  26  23  87 N9        29.69S WCI  17
HALLOCK        CLOUDY    30  23  74 NE15      29.86F WCI  19
ROSEAU         CLOUDY    28  23  80 NE21      29.82F WCI  15
WARROAD        LGT SNOW  28  25  86 N18       29.83F WCI  16
THIEF RVR FALL FLURRIES  29  24  82 N17       29.77F WCI  17
CROOKSTON      FLURRIES  28  25  86 NE17G23   29.80F WCI  16
FOSSTON        LGT SNOW  25  23  93 N20       29.73S VSB 1   WCI  11
DETROIT LAKES  LGT SNOW  30  27  86 NE7       29.68F WCI  23
MOORHEAD       LGT RAIN  27  25  93 N9        29.74F WCI  17
PARK RAPIDS    LGT SNOW  28  21  75 N14G21    29.65F WCI  17
MAHNOMEN       LGT SNOW  26  24  92 N7        29.71S WCI  18
$$
MNZ006-009>011-018-025>026-261800-
   North Central Minnesota

CITY           SKY/WX    TMP DP  RH WIND       PRES   REMARKS
BAUDETTE       LGT SNOW  28  23  81 N16G22    29.78F WCI  16
FLAG ISLAND    CLOUDY    28  21  74 NE24G32   29.85F WCI  14
INTL FALLS     SNOW      25  20  81 NE15G28   29.74F VSB 1/2 WCI  13
WASKISH        LGT SNOW  27  23  86 NE13G23   29.74S WCI  16
BIG FORK       LGT SNOW  27  21  80 N9        29.68F WCI  17
LONGVILLE      MIX PCPN  27  25  93 N7        29.65S WCI  19
GRAND RAPIDS   LGT SNOW  27  24  89 N13G20    29.65S FOG     WCI  16
CRANE LAKE     LGT SNOW  25  21  86 N6G16     29.73S WCI  18
ORR            LGT SNOW  25  19  80 N7        29.65F WCI  17
COOK           LGT SNOW  25  21  86 N7        29.66F WCI  17
WALKER         CLOUDY    26  22  84 N8        29.67S WCI  18
$$
MNZ012-019>021-037-261800-
   Northeast Minnesota

CITY           SKY/WX    TMP DP  RH WIND       PRES   REMARKS
DULUTH         LGT SNOW  33  31  92 NE10      29.56F VSB 3/4 WCI  25
ELY            LGT SNOW  25  23  93 N9G20     29.63S WCI  15
HIBBING        MIX PCPN  27  25  92 N12       29.62F FOG     WCI  17
EVELETH        MIX PCPN  30  26  86 N6        29.62F WCI  24
DULUTH HARBOR  MIX PCPN  34  34 100 NE26G33   29.59F WCI  21
TWO HARBORS    LGT SNOW  36  30  80 CALM      29.57S
SILVER BAY     DRIZZLE   34  32  93 NE5       29.57F WCI  30
GRAND MARAIS     N/A     33  29  85 NE12G17   29.59F WCI  24
G MARAIS ARPRT LGT SNOW  27  21  80 N7        29.55F WCI  19
$$
MNZ029>031-032-039>041-046>048-054>057-064-261800-
   West Central Minnesota

CITY           SKY/WX    TMP DP  RH WIND       PRES   REMARKS
FERGUS FALLS   CLOUDY    30  27  86 N9G17     29.68S WCI  22
WHEATON        CLOUDY    30  27  86 N16G25    29.71S FOG     WCI  19
MORRIS         CLOUDY    34  30  86 N17       29.64S WCI  23
ALEXANDRIA     CLOUDY    31  29  92 N13       29.63F WCI  21
ELBOW LAKE     CLOUDY    32  28  86 N13       29.66S WCI  22
WADENA         MIX PCPN  27  25  93 N7        29.64F WCI  19
GLENWOOD       PTSUNNY   34  30  86 N12       29.62S WCI  25
APPLETON       CLOUDY    36  34  93 N14       29.64S
BENSON         CLOUDY    39  30  70 NE15      29.64F
ORTONVILLE     CLOUDY    30  28  93 N21       29.67S WCI  17
MADISON        CLOUDY    37  36  93 N18       29.65S
WILLMAR        CLOUDY    37  34  87 N18       29.61F
$$
MNZ033>034-036-042>043-049>051-058-059-261800-
   Central Minnesota

CITY           SKY/WX    TMP DP  RH WIND       PRES   REMARKS
ST CLOUD       CLOUDY    34  32  92 N10G23    29.58R WCI  26
SAUK CENTRE    CLOUDY    32  29  88 N13       29.61F WCI  22
PAYNESVILLE    CLOUDY    34  35 100 N12G20    29.60S WCI  26
AITKIN         MIX PCPN  34  28  80 N7        29.59S WCI  28
PINE RIVER     MIX PCPN  28  25  86 N8        29.67F WCI  20
BRAINERD       CLOUDY    31  29  92 N13       29.62S WCI  21
STAPLES        MIX PCPN  28  27  93 CALM      29.63S
LONG PRAIRIE   CLOUDY    30  28  93 CALM      29.61F
LITTLE FALLS   CLOUDY    32  30  93 N8        29.61S WCI  25
LITCHFIELD     CLOUDY    36  34  93 N16       29.58S
BUFFALO        LGT RAIN  37  33  89 NW12      29.57R
MAPLE LAKE     LGT SNOW  36  34  94 N16       29.58R
HUTCHINSON     CLOUDY    37  35  92 N12G22    29.58F FOG
$$
MNZ037-044-045-052-053-261800-
   East Central Minnesota

CITY           SKY/WX    TMP DP  RH WIND       PRES   REMARKS
PRINCETON      LGT RAIN  36  34  93 N10       29.57R
MORA           LGT RAIN  34  32  93 N6        29.57S WCI  29
CAMBRIDGE      LGT RAIN  37  34  87 N6        29.53S
RUSH CITY      LGT RAIN  36  33  90 N9G18     29.54R
MOOSE LAKE     LGT SNOW  32  32 100 N9        29.55S WCI  24
HINCKLEY       LGT RAIN  34  32  93 N14G20    29.55S WCI  24
CLOQUET        LGT SNOW  32  30  93 CALM      29.57S VSB 1
MCGREGOR       CLOUDY    32  30  93 N9        29.60S WCI  24
$$
MNZ071>073-080-081-089-090-097-098-261800-
   Southwest Minnesota

CITY           SKY/WX    TMP DP  RH WIND       PRES   REMARKS
MONTEVIDEO     CLOUDY    36  36 100 N15       29.62F
GRANITE FALLS  CLOUDY    38  35  87 NW14      29.62F
CANBY          CLOUDY    34  32  93 W17G23    29.66S WCI  23
MARSHALL       CLOUDY    34  33  96 N20       29.63R WCI  23
REDWOOD FALLS  CLOUDY    38  31  76 N15G22    29.60R
OLIVIA         CLOUDY    36  32  87 N14G21    29.58F
PIPESTONE      CLOUDY    34  28  80 N18G25    29.61  WCI  23
WINDOM         SUNNY     37  36  93 NW23      29.56F
WORTHINGTON    CLOUDY    35  33  92 N21       29.58F WCI  24
JACKSON        CLOUDY    36  34  93 NW23G30   29.57F
TRACY          CLOUDY    36  35  97 NW16G24   29.62S FOG
SLAYTON        CLOUDY    33  32  96 NW21      29.59F FOG     WCI  21
$$
MNZ065>067-074>077-082>085-091>093-261800-
   South Central Minnesota

CITY           SKY/WX    TMP DP  RH WIND       PRES   REMARKS
MANKATO        CLOUDY    38  35  89 N16G23    29.53F
NEW ULM        CLOUDY    37  34  87 NW17      29.56F
ST JAMES       CLOUDY    39  36  87 NW21      29.55F
FAIRMONT       CLOUDY    38  35  89 NW18      29.56S
GLENCOE        CLOUDY    37  37 100 N13G21    29.55F
FARIBAULT      CLOUDY    37  36  93 NW15      29.50F
OWATONNA       CLOUDY    39  36  87 NW17      29.49F
WASECA         CLOUDY    37  36  93 NW20      29.52F
ALBERT LEA     CLOUDY    37  37 100 NW10G23   29.51R
$$
MNZ078>079-086>088-094>096-261800-
   Southeast Minnesota

CITY           SKY/WX    TMP DP  RH WIND       PRES   REMARKS
ROCHESTER      CLOUDY    39  38  96 NW18      29.46R
RED WING       DRIZZLE   39  36  87 NW9       29.49S
STANTON        CLOUDY    38  35  87 NW14      29.49F
DODGE CENTER   CLOUDY    37  36  93 NW15      29.47F
WINONA         CLOUDY    43  41  93 NW8       29.45S FOG
AUSTIN         CLOUDY    39  36  87 NW14      29.50R
PRESTON        CLOUDY    40  38  93 NW8       29.46R
$$
ABBREVIATIONS USED IN REMARKS
   TC - TEMPERATURES IN CELSIUS
  WCI - WIND CHILL INDEX
   HX - HEAT INDEX
  VSB - VISIBILITY
$$




USA.gov is the U.S. government's official web portal to all federal, state and local government web resources and services.